Location: Appeville
(49.3218°N, 1.3427°W)
Time: 23:06:29
(UTC+00:00)

Cosmos 1092 Rocket - Pass Details

Date: 08 December 2019
Orbit: 953 x 996 km, 83.0° (Epoch: 24 January)

Event Time Altitude Azimuth Distance (km) Brightness Sun altitude
Rises 06:00:40 0° 346° (NNW) 3,671 6.7 -16.4°
Reaches altitude 10° 06:03:18 10° 340° (NNW) 2,714 6.0 -16.0°
Maximum altitude 06:09:06 44° 271° (W) 1,304 4.2 -15.1°
Drops below altitude 10° 06:14:51 10° 201° (SSW) 2,678 6.3 -14.2°
Sets 06:17:25 0° 195° (SSW) 3,618 7.0 -13.8°
